Location: Wells
(51.2093°N, 2.6446°W)
Time: 01:45:39
(UTC+00:00)

ACS3 Solar Sail - Visible Passes

Search period start: 22 January 2026 00:00
Search period end: 01 February 2026 00:00
Orbit: 899 x 978 km, 97.2° (Epoch: 19 January)

Date Brightness Start Highest point End Pass type
(mag) Time Alt. Az. Time Alt. Az. Time Alt. Az.
25 Jan 4.3 03:28:09 10° N 03:28:14 10° N 03:28:14 10° N visible
26 Jan 4.2 03:42:09 10° N 03:42:19 11° N 03:42:19 11° N visible
27 Jan 4.2 03:56:10 10° N 03:56:23 11° N 03:56:23 11° N visible
28 Jan 4.1 04:10:14 10° N 04:10:27 11° N 04:10:27 11° N visible
29 Jan 4.1 04:24:22 10° N 04:24:32 11° N 04:24:32 11° N visible
30 Jan 4.4 02:54:36 10° N 02:54:45 11° N 02:54:45 11° N visible
30 Jan 4.0 04:38:35 10° NNW 04:38:36 10° NNW 04:38:36 10° NNW visible
31 Jan 4.3 03:08:32 10° N 03:08:50 11° N 03:08:50 11° N visible
